Back to catalog

COSMOS 457

AliveMilitaryLEO
NORAD 5614·PAYLOAD·🇷🇺 Russia

Launched Nov 20, 1971 from Plesetsk Cosmodrome

Loading…

Next Passes (next 24 hours)

TLE

FreshSource: Space-Track

Epoch: Sep 14, 2026, 09:18 UTC

1 05614U 71099A   26257.38755525 -.00000334  00000-0 -82763-3 0  9995
2 05614  74.0326 236.4493 0022418 123.3733  42.2113 13.16117531633295

Track COSMOS 457 in real time with AllMySat

Download on the App Store